TIME,DELAY(SENSOR),PRES,OXYGEN,RAWTEMP,T(OPTODE),TCPHASE,FLUOR,BETA(BETA700),BETA(BETA412),BETA(BETA440),CDOM,C(CSC),ED(ED412.20),ED(ED444.00),ED(ED489.60),ED(ED554.30),LU(LU412.10),LU(LU443.90),LU(LU489.70),LU(LU554.70),COMP,TILTX,TILTY,CHECK
1334029159,5810,872.9799804687500000,41.6253013610839840,562.0629882812500000,4.4219398498535160,55.2919006347656250,55,104,102,80,85,15455,0,0,0,0,2147131264,2147778733,2147574080,2147575387,152,2,13,269
1334032755,5811,963.2100219726562000,43.6518096923828100,569.7470092773438000,4.1834220886230470,55.0833816528320300,55,101,101,79,83,15456,0,0,0,0,2147129417,2147778560,2147572388,2147573074,2630,2,13,10131
1334036355,5812,985.0300292968750000,44.7354087829589840,571.4495849609375000,4.1305050849914550,54.9427299499511700,55,100,102,78,84,15453,0,0,0,0,2147132214,2147779611,2147580333,2147573211,1397,2,13,44552
1334039955,5811,979.3499755859375000,46.0976791381835940,572.5120239257812000,4.0974712371826170,54.7642402648925800,54,102,101,79,84,15446,0,0,0,0,2147129042,2147774692,2147576512,2147571264,3273,2,13,52986
1334043555,5809,983.2999877929688000,45.6716499328613300,573.0529174804688000,4.0806522369384770,54.8309898376464840,56,100,103,78,84,15444,0,0,0,0,2147127835,2147778614,2147577435,2147572260,3097,2,13,48257
1334047155,5807,988.6300048828125000,45.2953910827636700,573.0358276367188000,4.0811820030212400,54.8850288391113300,55,98,104,78,84,15440,0,0,0,0,2147129755,2147775716,2147579053,2147573787,3592,2,13,53026
1334050755,5810,998.3599853515625000,45.5567512512207000,572.5825805664062000,4.0952758789062500,54.8424415588378900,55,105,101,80,85,15449,0,0,0,0,2147125760,2147772297,2147581778,2147573037,3327,2,13,60014
1334054355,5809,1018.4500122070312000,43.8218994140625000,571.8175048828125000,4.1190662384033200,55.0819015502929700,55,99,100,79,82,15445,0,0,0,0,2147131373,2147775542,2147577078,2147569901,338,2,13,48280
1334057955,5808,1015.3800048828125000,42.7540397644043000,570.8676757812500000,4.1485919952392580,55.2197990417480500,55,101,101,79,84,15448,0,0,0,0,2147126656,2147778432,2147576649,2147572288,234,2,13,33723
1334061555,5810,1023.6500244140625000,43.1880302429199200,570.8513183593750000,4.1491050720214840,55.1529502868652340,55,99,101,80,83,15444,0,0,0,0,2147126336,2147776292,2147578861,2147573897,51,2,13,3110
1334065155,5810,1015.4500122070312000,42.9625015258789060,570.9957885742188000,4.1446127891540530,55.1910896301269500,54,100,102,78,84,15449,0,0,0,0,2147127634,2147773796,2147576164,2147569563,247,2,13,42456
1334068755,5810,1018.8400268554688000,42.5613594055175800,570.8134765625000000,4.1502780914306640,55.2434196472168000,55,99,102,79,82,15446,0,0,0,0,2147125083,2147779154,2147577371,2147570953,222,2,13,10698
1334072355,5811,1018.8300170898438000,41.9229393005371100,570.8229980468750000,4.1499819755554200,55.3382682800293000,55,109,102,79,83,15444,0,0,0,0,2147128685,2147778313,2147575369,2147573558,3389,2,13,10053
1334075955,5810,1015.7999877929688000,42.0364303588867200,571.8546142578125000,4.1179161071777340,55.3351097106933600,54,98,103,78,84,15439,0,0,0,0,2147126217,2147777773,2147574610,2147574144,3507,2,13,6148
1334079555,5809,1018.2600097656250000,42.6370582580566400,571.9345703125000000,4.1154251098632810,55.2454681396484400,54,103,102,79,84,15443,0,0,0,0,2147123556,2147771392,2147577664,2147573302,255,2,13,59962
1334083155,5810,1007.7399902343750000,45.0883407592773440,571.7302856445312000,4.1217780113220215,54.8946914672851560,54,116,102,79,83,15441,0,0,0,0,2147124361,2147776987,2147578989,2147574080,54,2,13,48072
1334086755,5809,1010.0000000000000000,45.4354705810546900,572.9478759765625000,4.0839180946350100,54.8625717163085940,55,102,102,79,83,15441,0,0,0,0,2147121883,2147775451,2147574317,2147571273,3465,2,13,15906
1334090355,5811,992.0000000000000000,44.8622398376464840,574.1644897460938000,4.0460739135742190,54.9581718444824200,55,101,102,79,84,15444,0,0,0,0,2147126473,2147773476,2147574171,2147571995,96,2,13,12325
1334093955,5809,991.3200073242188000,44.1801490783691400,574.3414916992188000,4.0405669212341310,55.0577087402343750,55,100,101,78,84,15431,0,0,0,0,2147122843,2147777526,2147579986,2147570038,3303,2,13,29927
1334097555,5810,996.0399780273438000,45.0709800720214840,574.2744750976562000,4.0426478385925290,54.9314193725585940,55,99,102,78,83,15445,0,0,0,0,2147127369,2147781769,2147575460,2147571072,3538,2,13,35147
1334101155,5809,997.6799926757812000,44.3085403442382800,574.3850708007812000,4.0392088890075680,55.0365715026855500,55,101,102,79,84,15438,0,0,0,0,2147128649,2147780416,2147575835,2147572397,995,2,13,38664
1334104755,5811,990.2100219726562000,44.8051414489746100,574.4074096679688000,4.0385169982910160,54.9659385681152340,54,100,103,78,83,15440,0,0,0,0,2147125577,2147776640,2147584402,2147574253,908,2,13,47210
1334108355,5810,997.8400268554688000,45.2034988403320300,574.3184204101562000,4.0412859916687010,54.9085502624511700,55,100,102,80,84,15440,0,0,0,0,2147128027,2147778413,2147577755,2147574281,3443,2,13,62029
1334111955,5807,998.9199829101562000,44.5908393859863300,574.1452026367188000,4.0466752052307130,54.9954910278320300,55,100,102,78,84,15440,0,0,0,0,2147126025,2147774674,2147573787,2147574336,290,2,13,26921
1334115555,5811,1007.7299804687500000,44.6774597167968750,573.5620727539062000,4.0648140907287600,54.9790802001953100,54,100,100,79,83,15437,0,0,0,0,2147125568,2147776877,2147576155,2147573961,348,2,13,21281
1334119155,5808,1014.5999755859375000,45.3959007263183600,573.1447753906250000,4.0777931213378910,54.8663597106933600,55,100,102,78,83,15432,0,0,0,0,2147125860,2147775817,2147577572,2147571602,213,2,13,51893
1334122755,5810,1013.7199707031250000,44.7756500244140600,572.6613769531250000,4.0928249359130860,54.9498710632324200,56,100,102,79,83,15432,0,0,0,0,2147125211,2147774838,2147579136,2147572900,167,2,13,2287
1334126355,5807,1015.4699707031250000,44.8524398803710940,572.6621704101562000,4.0928001403808590,54.9415397644043000,53,102,101,79,83,15433,0,0,0,0,2147125769,2147781174,2147579090,2147570624,192,2,13,7675
1334129955,5810,1019.4199829101562000,44.8365097045898440,571.9008178710938000,4.1164760589599610,54.9318199157714840,55,99,102,78,83,15433,0,0,0,0,2147126326,2147778029,2147573476,2147574838,3464,2,13,22909
1334133555,5809,1001.6500244140625000,44.8625717163085940,573.6489868164062000,4.0621089935302730,54.9510803222656250,56,98,101,82,84,15437,0,0,0,0,2147126107,2147775122,2147580077,2147567542,467,2,13,40316
1334137155,5807,1012.4000244140625000,44.2528305053710940,573.2631835937500000,4.0741100311279300,55.0307617187500000,55,99,101,79,84,15428,0,0,0,0,2147127689,2147775341,2147574646,2147575405,344,2,13,17676
1334140755,5811,1018.7100219726562000,45.0538406372070300,573.0916748046875000,4.0794448852539060,54.9148902893066400,56,101,103,78,83,15429,0,0,0,0,2147126701,2147778861,2147578093,2147573814,3059,2,13,48625
1334144355,5810,1010.5300292968750000,45.3154296875000000,573.3983154296875000,4.0699081420898440,54.8809890747070300,55,101,103,78,84,15431,0,0,0,0,2147125312,2147781467,2147577974,2147571812,3074,2,13,9983
1334147955,5809,1011.1500244140625000,44.1952590942382800,573.3488769531250000,4.0714449882507320,55.0406684875488300,55,121,103,80,84,15431,0,0,0,0,2147126720,2147770139,2147578934,2147571675,3391,2,13,28518
1334151555,5811,1006.5399780273438000,44.5037689208984400,573.9075927734375000,4.0540661811828610,55.0029602050781250,54,100,104,78,83,15432,0,0,0,0,2147129234,2147780013,2147576448,2147573302,252,2,13,4627
1334155155,5809,1019.2000122070312000,44.2162017822265600,573.1071777343750000,4.0789599418640140,55.0334701538085940,54,106,103,79,85,15428,0,0,0,0,2147126518,2147776685,2147573750,2147573888,511,2,13,9293
1334158755,5810,1017.3800048828125000,44.4198303222656250,573.0249023437500000,4.0815219879150390,55.0038299560546900,54,101,102,79,83,15422,0,0,0,0,2147129883,2147775771,2147579044,2147572141,3556,2,13,23946
1334162355,5808,1015.6199951171875000,44.0608787536621100,573.0780029296875000,4.0798702239990230,55.0567207336425800,55,102,101,78,84,15424,0,0,0,0,2147126592,2147779684,2147577435,2147575424,364,2,13,25756
1334165955,5810,1024.4799804687500000,44.5480690002441400,572.7672729492188000,4.0895309448242190,54.9861412048339840,55,103,103,79,84,15422,0,0,0,0,2147126528,2147776603,2147579675,2147570761,3225,2,13,53002
1334169555,5808,1018.3699951171875000,42.3971405029296900,572.5921020507812000,4.0949821472167970,55.2929306030273440,55,100,103,78,85,15423,0,0,0,0,2147126985,2147779282,2147576146,2147572397,3373,2,13,61556
1334173155,5812,1012.6599731445312000,43.8930892944335940,572.9440917968750000,4.0840339660644530,55.0779495239257800,55,101,102,79,84,15422,0,0,0,0,2147126262,2147781147,2147575762,2147570605,322,2,13,31497
1334173856,5807,1011.0499877929688000,44.1928291320800800,572.8018798828125000,4.0884571075439450,55.0350418090820300,55,103,102,78,85,15421,0,0,0,0,2147129526,2147772800,2147576932,2147572178,2300,2,13,7239
